Regional Weather Roundup
Issued by NWS

Home | Current Version | Previous Version | Graphics & Text | Print | Product List | Glossary On
Versions: 1 2 3 4 5 6 7 8 9 10 11 12 13 14 15 16 17 18 19 20 21 22 23 24 25 26 27 28 29 30 31 32 33 34 35 36 37 38 39 40 41 42 43 44 45 46 47 48 49 50
000
ASUS43 KLSX 272107
RWRMO

WEATHER SUMMARY FOR MISSOURI
NATIONAL WEATHER SERVICE SPRINGFIELD MO
400 PM CDT FRI MAR 27 2015

NOTE: "FAIR" INDICATES FEW OR NO CLOUDS BELOW 12,000 FEET WITH NO
       SIGNIFICANT WEATHER AND/OR OBSTRUCTIONS TO VISIBILITY.
       CURRENT SKY AND/OR WEATHER CONDITIONS ARE NOT AVAILABLE FOR
       CHILLICOTHE AND FARMINGTON.

MOZ001>031-035>038-043-044-053-054-272200-
...NORTHERN AND WESTERN MISSOURI...

CITY           SKY/WX    TMP DP  RH WIND       PRES   REMARKS
KANSAS CTY INT CLOUDY    43  20  39 VRB6      30.15F
KANSAS C DTWN  SUNNY     46  17  31 CALM      30.16F
LEE`S SUMMIT   MOSUNNY   45  17  32 N8        30.16F
ST JOSEPH      SUNNY     43  18  36 VRB6      30.17F
CHILLICOTHE      N/A     43  18  36 CALM      30.18F
KIRKSVILLE     SUNNY     42  14  32 VRB3      30.16F

$$
MOZ066>068-077>081-088>096-101>105-272200-
...SOUTHWEST MISSOURI...

CITY           SKY/WX    TMP DP  RH WIND       PRES   REMARKS
SPRINGFIELD    MOSUNNY   46  22  38 N13G21    30.14F
JOPLIN         SUNNY     49  25  39 N12G17    30.16F

$$
MOZ032>034-039>042-045>050-055>058-069>072-272200-
...CENTRAL MISSOURI...

CITY           SKY/WX    TMP DP  RH WIND       PRES   REMARKS
COLUMBIA       MOSUNNY   43  21  41 NW12      30.16F
JEFFERSON CITY PTSUNNY   44  18  35 N9        30.16F
ROLLA          MOSUNNY   41  21  44 N13       30.13S
SEDALIA        MOSUNNY   44  22  41 N10       30.17F
WARRENSBURG    SUNNY     43  18  36 NW7       30.17F
OSAGE BEACH    PTSUNNY   43  19  39 N5        30.15F

$$
MOZ051-052-059>065-272200-
...EAST CENTRAL MISSOURI...

CITY           SKY/WX    TMP DP  RH WIND       PRES   REMARKS
ST LOUIS INTL  PTSUNNY   43  20  39 NW10G20   30.16F
SPIRIT OF STL  PTSUNNY   41  18  39 W10       30.16F
ST CHARLES     MOSUNNY   40  19  43 NW9       30.16F

$$
MOZ072>076-082>087-097>100-106>115-272200-
...SOUTH CENTRAL AND SOUTHEAST MISSOURI...

CITY           SKY/WX    TMP DP  RH WIND       PRES   REMARKS
CAPE GIRARDEAU CLOUDY    40  26  57 N17G26    30.14S
FARMINGTON     CLOUDY    37  19  48 N10G18    30.17S
POPLAR BLUFF   MOSUNNY   45  27  49 N16G22    30.13R
WEST PLAINS    PTSUNNY   46  23  40 NW8G18    30.12F

$$


USA.gov is the U.S. government's official web portal to all federal, state and local government web resources and services.